Regional Weather Roundup
Issued by NWS

Home | Current Version | Previous Version | Graphics & Text | Print | Product List | Glossary On
Versions: 1 2 3 4 5 6 7 8 9 10 11 12 13 14 15 16 17 18 19 20 21 22 23 24 25 26 27 28 29 30 31 32 33 34 35 36 37 38 39 40 41 42 43 44 45 46 47 48 49 50
000
ASUS43 KBIS 251020
RWRND

NORTH DAKOTA REGIONAL WEATHER ROUNDUP
NATIONAL WEATHER SERVICE BISMARCK ND
500 AM CDT MON MAY 25 2015

NOTE: "FAIR" INDICATES FEW OR NO CLOUDS BELOW 12,000 FEET WITH NO
SIGNIFICANT WEATHER AND/OR OBSTRUCTIONS TO VISIBILITY.


NDZ001>003-009>011-017-251100-
NORTHWEST NORTH DAKOTA

CITY           SKY/WX    TMP DP  RH WIND       PRES   REMARKS
WILLISTON      PTCLDY    47  42  83 NE5       29.88S
MINOT          CLOUDY    54  47  77 SW5       29.85S
MINOT AFB      CLOUDY    53  53 100 N6        29.84F
$$

NDZ018>021-031>035-040>046-251100-
SOUTHWEST NORTH DAKOTA

CITY           SKY/WX    TMP DP  RH WIND       PRES   REMARKS
BISMARCK       LGT RAIN  56  54  93 NE5       29.84F
DICKINSON      CLOUDY    54  49  83 NE8       29.85F
GARRISON         N/A     55  51  86 SW3       29.86S
HETTINGER ARPT LGT RAIN  53  51  93 N8        29.85S FOG
$$

NDZ004>008-012>016-024-026-027-054-251100-
NORTHEAST NORTH DAKOTA

CITY           SKY/WX    TMP DP  RH WIND       PRES   REMARKS
GRAND FORKS    CLOUDY    55  51  86 CALM      29.81F
GRND FRKS AFB  CLOUDY    53  51  91 CALM      29.81F
DEVILS LAKE    CLOUDY    55  48  76 CALM      29.82F
$$

NDZ022-023-025-028>030-036>039-047>053-251100-
SOUTHEAST NORTH DAKOTA

CITY           SKY/WX    TMP DP  RH WIND       PRES   REMARKS
FARGO          LGT RAIN  58  56  93 N9        29.79F FOG
JAMESTOWN      LGT RAIN  56  55  97 N7        29.82F FOG
$$



USA.gov is the U.S. government's official web portal to all federal, state and local government web resources and services.